www.pogodaiklimat.ru

Погода и климат >> Архив погоды >> Россия >> Курганская область >> Макушино


ПОГОДА в Макушино

  • Прогноз погоды в Макушино
  • Монитор погоды в Макушино

АРХИВ ПОГОДЫ в Макушино

Время (UTC), дата Ветер
(напр.,м/с)
 
Видим.   Явления Облачность Т
(С)
Тd
(С)
f
(%)
Тe
(С)
Тes
(С)
Комфортность P
(гПа)
Po
(гПа)
Тmin
(С)
Tmax
(С)
R
(мм)
R24
(мм)
S
(см)
09 12.08 В 6-10
{10}
20 км 8/0
[Ci sp]
+30.4 +12.0 32 +31 +35 жарко 1000.6 985.1
12 12.08 З 3
{14}
20 км в посл. час ливневой дождь 10/10 1000 м
[Cb cap]
+19.8 +14.8 73 +22 +22 комфорт 1001.9 985.9
15 12.08 СВ 2 4000 м слаб. ливневой дождь 10/10 1000 м
[Cb cap]
+19.5 +14.4 72 +22 +22 комфорт 1000.9 984.8 +31.5 0.5
18 12.08 СВ 6-10
{17}
4000 м гроза, ливневой дождь 10/10 1000 м
[Cb cap]
+19.1 +14.5 75 +20 +20 1000.0 983.9
21 12.08 СВ 4
{10}
н/о н/о +17.8 +14.7 82 +18 +18 999.5 983.4
00 13.08 СВ 3 20 км {гроза, ливн. осадки} 10/10 1000 м
[Cb cap]
+18.2 +13.7 75 +19 +19 998.5 982.5
03 13.08 В 4 20 км 8/8 1000 м
[Cb cap]
+19.0 +12.0 64 +20 +20 997.8 981.8 +17.6 3
06 13.08 В 6-11
{13}
20 км 10/10 1000 м
[Cb cap]
+21.6 +11.1 51 +23 +23 комфорт 997.8 981.9
09 13.08 В 8-14
{15}
20 км 9/8 1000 м
[Cb cap Ci sp]
+23.6 +12.0 48 +25 +26 комфорт 998.5 982.7
12 13.08 В 7-13
{17}
20 км 8/0
[Ci sp]
+23.7 +11.8 47 +25 +26 комфорт 999.3 983.5
15 13.08 В 4
{15}
4000 м гроза, ливневой дождь 10/10 1000 м
[Cb cap]
+18.7 +14.1 75 +19 +19 1001.7 985.6 +25.6 0.8
18 13.08 В 1 50 км {гроза, ливн. осадки} 9/9 1000 м
[Cb cap]
+15.9 +13.1 83 +17 +17 1003.3 987.0
21 13.08 В 3 50 км 3/1 1000 м
[Cb cap Ci sp]
+15.6 +12.1 80 +15 +15 1003.7 987.4
00 14.08 СВ 2 20 км 3/3 1000 м
[Cb cap]
+13.6 +11.4 87 +13 +13 1005.2 988.7
03 14.08 СВ 2 20 км в посл. час ливневой дождь 8/8 1000 м
[Cb cap]
+16.0 +12.7 81 +16 +17 1005.9 989.6 +13.6 2
06 14.08 СВ 2 20 км {ливн. осадки} 9/9 1000 м
[Cb cap]
+19.8 +11.4 58 +22 +23 комфорт 1006.7 990.5
09 14.08 СВ 4 20 км 9/8 1000 м
[Cb cap Ci fib]
+22.4 +11.7 51 +25 +26 комфорт 1006.7 990.7
12 14.08 СВ 3 20 км в посл. час ливневой дождь 10/10 600 м
[Cb cap]
+21.5 +13.5 60 +24 +24 комфорт 1007.1 991.1
15 14.08 С 1 20 км 8/8 1000 м
[Cb cap]
+17.0 +12.3 74 +18 +18 1008.5 992.1 +23.2
18 14.08 С 1 4000 м слаб. ливневой дождь 10/10 1000 м
[Cb cap]
+15.2 +13.1 87 +16 +16 1009.0 992.6
21 14.08 С 1 50 км {ливн. осадки} 8/8 1000 м
[Cb cap]
+14.2 +12.2 88 +15 +15 1008.7 992.2
00 15.08 С 1 20 км {ливн. осадки} 8/6 1000 м
[Cb cap Ci sp]
+12.9 +11.5 91 +13 +13 1009.0 992.4
03 15.08 СЗ 2 20 км 9/6 1000 м
[Cb cap Ci sp]
+15.4 +13.9 91 +15 +16 1010.1 993.7 +12.5 0.3
06 15.08 С 3 20 км 8/4 1000 м
[Cb cap Ci fib]
+22.2 +12.8 55 +25 +30 комфорт 1009.9 993.8
09 15.08 СВ 3 20 км 8/8 600 м
[Cb cap]
+24.3 +11.8 46 +26 +28 жарко 1010.2 994.2
12 15.08 СВ 3 50 км 8/6 600 м
[Cb cap Ci fib]
+23.9 +11.2 45 +25 +26 комфорт 1010.2 994.2
15 15.08 С 1 20 км 3/0
[Ci fib]
+19.2 +12.1 63 +21 +21 комфорт 1011.3 995.1 +24.7
18 15.08 С 1 50 км 9/9 1000 м
[Sc]
+16.2 +13.4 83 +17 +17 1012.7 996.3
21 15.08 СЗ 1 50 км 8/0
[Ci sp]
+12.7 +11.0 89 +13 +13 1012.9 996.2
00 16.08 СЗ 1 50 км ясно +11.3 +9.9 91 +11 +11 1014.1 997.3
03 16.08 СЗ 2 20 км ясно +17.5 +13.0 75 +18 +21 1014.4 998.0 +10.6
06 16.08 СЗ 3 20 км ясно +23.8 +10.9 44 +25 +34 комфорт 1014.1 998.1
09 16.08 С 4 20 км 8/8 1000 м
[Cb cap]
+25.6 +11.5 41 +27 +28 жарко 1013.2 997.2
12 16.08 С 3 20 км 3/1 1000 м
[Cb cap Ci fib]
+25.4 +11.8 43 +27 +29 жарко 1013.4 997.5
15 16.08 С 1 20 км 6/3 1000 м
[Cb cap Ci sp]
+19.1 +12.4 65 +21 +21 комфорт 1014.6 998.3 +26.6
18 16.08 С 1 50 км 4/4 1000 м
[Sc]
+15.0 +13.0 88 +15 +15 1015.9 999.3
21 16.08 З 1 50 км 5/0
[Ci sp]
+12.3 +10.9 91 +12 +12 1016.2 999.5
00 17.08 З 2 20 км 6/0
[Ci sp]
+10.7 +9.4 92 +9 +9 1017.2 1000.4
03 17.08 З 1 20 км 6/0
[Ci sp]
+18.4 +15.1 81 +20 +24 1017.0 1000.6 +10.5
06 17.08 СЗ 2 20 км 8/0
[Ci sp]
+24.8 +11.5 43 +26 +35 жарко 1017.4 1001.3
09 17.08 З 2 20 км 8/5 1000 м
[Cb cap Ci sp]
+27.2 +12.1 39 +28 +33 жарко 1016.5 1000.6
12 17.08 З 3 20 км 6/0
[Ci sp]
+27.3 +12.3 39 +29 +31 жарко 1016.2 1000.3
15 17.08 З 1 20 км 9/0
[Ci sp]
+21.1 +14.8 67 +24 +24 комфорт 1016.7 1000.5 +28.0
18 17.08 ЮЗ 1 50 км 6/0
[Ci sp]
+19.6 +14.1 71 +22 +22 комфорт 1017.1 1000.8
21 17.08 СЗ 1 50 км ясно +14.9 +12.3 84 +15 +15 1017.8 1001.2
00 18.08 СВ 2 50 км ясно +16.5 +15.1 91 +17 +17 1018.5 1002.0
03 18.08 В 2 20 км 8/0
[Ci sp]
+18.7 +12.3 66 +20 +23 1019.2 1002.8 +14.7
06 18.08 СВ 1 20 км 6/0
[Ci sp]
+25.2 +13.7 49 +27 +38 жарко 1018.6 1002.6
09 18.08 СЗ 1 20 км 9/8 1000 м
[Cb cap Ac cast Ci fib]
+27.4 +14.9 46 +30 +32 жарко 1018.1 1002.2
12 18.08 СВ 1 20 км гроза без осадков 10/10 600 м
[Cb cap]
+26.5 +15.4 51 +30 +30 душно 1018.1 1002.2
15 18.08 В 1
{12}
20 км гроза без осадков {ливн. осадки} 9/6 1000 м
[Cb cap Ci sp]
+18.1 +16.9 93 +19 +19 1019.5 1003.1 +28.0 13
18 18.08 С 1 50 км {гроза, ливн. осадки} 8/8 1000 м
[Cb cap]
+16.7 +15.5 93 +18 +18 1020.8 1004.3
21 18.08 С 2 50 км 6/6 1000 м
[Cb cap]
+15.6 +14.4 93 +15 +15 1021.8 1005.2
00 19.08 СВ 2 50 км 10/10 600 м
[Cb cap]
+15.7 +14.2 91 +16 +16 1022.8 1006.1
03 19.08 СВ 3 20 км в посл. час ливневой дождь 10/10 600 м
[Cb cap]
+16.1 +14.1 88 +16 +16 1023.8 1007.2 +15.5
06 19.08 СВ 2 20 км {ливн. осадки} 8/6 1000 м
[Cb cap Ci sp]
+20.9 +13.6 63 +24 +28 комфорт 1024.5 1008.2

 

Местоположение метеостанции Макушино (Курганская область, Россия): широта 55.25 долгота 67.30 высота над уровнем моря 139 м.

В архиве по умолчанию представлена погода в Макушино за последнюю неделю. Архивные данные за месяц целиком и за предыдущие месяцы, начиная с января 2011 года, Вы можете получить, выбрав интересующий диапазон дат из раскрывающегося списка и нажав кнопку "Ввод!".


*Определитесь, кто Вы:
робот инопланетянин человек

Внимание! Время в таблицах - всемирное. Для получения местного времени необходимо прибавить поправку, которая равна 5 ч.

Смотрите также архив погоды в соседних городах и на ближайших метеорологических станциях:

Погода в Мамлютке (Северо-Казахстанская область, Казахстан) (86 км)
Погода в Бердюжьем (Тюменская область, Россия) (91 км)
Погода в Половинном (Курганская область, Россия) (99 км)
Погода в Благовещенке (Северо-Казахстанская область, Казахстан) (100 км)
Погода в Кургане (Курганская область, Россия) (122 км)
Погода в Петропавловске город (Северо-Казахстанская область, Казахстан) (126 км)
Погода в Петропавловске (Северо-Казахстанская область, Казахстан) (127 км)
Погода в Пресногорьковке (Костанайская область, Казахстан) (130 км)
Погода в Ильинке (Омская область, Россия) (130 км)
Погода в Памятном (Курганская область, Россия) (132 км)

Пояснения к столбцам:

Ветер - указаны скорость ветра в м/с - средняя за 10 мин, порывы в срок и между сроками (в фигурных скобках) и направление, откуда дует ветер: С - северный, СВ - северо-восточный, В - восточный, ЮВ - юго-восточный, Ю - южный, ЮЗ - юго-западный, З - западный, СЗ - северо-западный.
Видимость - горизонтальная дальность видимости в метрах или километрах. При видимости от 1 до 10 км при отсутствии осадков обычно наблюдается дымка, при ухудшении видимости до 1 км и менее - туман. В сухую погоду видимость может ухудшаться дымом, пылью или мглою.
Явления - указаны атмосферные явления, наблюдавшиеся в срок или в последний час перед сроком; фигурными скобками обозначены явления, наблюдавшиеся между сроками (за 1-3 часа до срока); квадратными скобками обозначены град или гололедные отложения с указанием их диаметра в мм.
Облачность - указаны через наклонную черту общая и нижняя облачность в баллах и высота нижней границы облаков в метрах; квадратными скобками обозначены формы облаков: Ci - перистые, Cs - перисто-слоистые, Cc - перисто-кучевые, Ac - высококучевые, As - высокослоистые, Sc - слоисто-кучевые, Ns - слоисто-дождевые, Cu - кучевые, Cb - кучево-дождевые. Подробнее классификацию облаков см. в Атласе облаков (PDF).
T - Температура воздуха - температура, измеренная на высоте 2 м над землей.
Td - Температура точки росы - температура, при понижении до которой содержащийся в воздухе водяной пар достигнет насыщения.
f - Относительная влажность воздуха - влажноcть воздуха, измеренная на высоте 2 м над землей.
Te - Эффективная температура - температура, которую ощущает одетый по сезону человек в тени. Характеристика душности погоды. При расчете учитывается влияние влажности воздуха и скорости ветра на теплоощущения человека.
Tes - Эффективная температура на солнце - температура, которую ощущает человек, с поправкой на солнечный нагрев. Характеристика знойности погоды. Зависит от высоты солнца над горизонтом, облачности и скорости ветра. Ночью, в пасмурную погоду, а также при ветре 12 м/с и более поправка равна нулю.
P - Атмосферное давление - приведенное к уровню моря атмосферное давление.
Po - Атмосферное давление - измеренное на уровне метеостанции атмосферное давление.
Tmin - Минимальная температура - минимум температуры воздуха на высоте 2 м над землей.
Tmax - Максимальная температура - максимум температуры воздуха на высоте 2 м над землей.
R - Количество осадков - Количество выпавших осадков за период времени, мм. При наведении курсора мыши на число - период времени, за который выпало указанное количество осадков.
R24 - Количество осадков - Количество выпавших осадков за 24 часа, мм.
S - Снежный покров - Высота снежного покрова, см. При наведении курсора мыши на число - состояние снежного покрова и степень покрытия местности в баллах.